QPF
0.00 0.00 0.00 0.00 0.00 0.00 0.00 0.00 0.00 0.00 0.00 0.00 0.00 0.00 0.00 0.00 0.00 0.01 0.00 0.00 0.00 0.00 0.00 0.00 0.01 0.01 0.01 0.02 0.02 0.02 0.02 0.02 0.02 0.02 0.01 0.02 0.02 0.02 0.02 0.02 0.02 0.02 0.02 0.02 0.02 0.03 0.02 0.02 0.04
0.00 0.00 0.00 0.00 0.00 0.00 0.00 0.00 0.00 0.00 0.00 0.00 0.00 0.00 0.00 0.00 0.00 0.00 0.00 0.00 0.00 0.00 0.00 0.00 0.01 0.01 0.01 0.01 0.01 0.02 0.02 0.01 0.01 0.01 0.01 0.01 0.01 0.01 0.01 0.01 0.01 0.02 0.02 0.02 0.02 0.02 0.02 0.03 0.04
0.00 0.00 0.00 0.00 0.00 0.00 0.00 0.00 0.00 0.00 0.00 0.00 0.00 0.00 0.00 0.00 0.00 0.00 0.00 0.00 0.00 0.00 0.00 0.00 0.01 0.01 0.01 0.01 0.01 0.01 0.01 0.01 0.01 0.01 0.01 0.01 0.00 0.01 0.01 0.01 0.01 0.01 0.01 0.01 0.02 0.03 0.03 0.03 0.04
0.00 0.00 0.00 0.00 0.00 0.00 0.00 0.00 0.00 0.00 0.00 0.00 0.00 0.00 0.00 0.00 0.00 0.00 0.00 0.00 0.00 0.00 0.00 0.00 0.00 0.00 0.01 0.01 0.01 0.01 0.01 0.01 0.01 0.01 0.01 0.00 0.00 0.00 0.00 0.00 0.00 0.00 0.00 0.01 0.01 0.02 0.03 0.04 0.05
0.00 0.00 0.00 0.01 0.01 0.00 0.00 0.00 0.00 0.00 0.00 0.00 0.00 0.00 0.00 0.00 0.00 0.00 0.00 0.00 0.00 0.00 0.00 0.00 0.01 0.00 0.00 0.01 0.01 0.00 0.01 0.01 0.01 0.01 0.01 0.00 0.00 0.00 0.00 0.00 0.00 0.00 0.00 0.00 0.01 0.01 0.02 0.03 0.04
0.00 0.00 0.00 0.02 0.01 0.00 0.00 0.00 0.00 0.00 0.00 0.00 0.00 0.00 0.00 0.00 0.00 0.00 0.00 0.00 0.00 0.00 0.00 0.00 0.01 0.01 0.01 0.01 0.01 0.01 0.01 0.01 0.01 0.01 0.00 0.00 0.00 0.00 0.00 0.00 0.00 0.00 0.00 0.00 0.01 0.01 0.02 0.02 0.03
0.00 0.00 0.00 0.01 0.00 0.00 0.00 0.00 0.00 0.00 0.00 0.00 0.00 0.00 0.00 0.00 0.00 0.00 0.00 0.00 0.00 0.00 0.00 0.00 0.01 0.01 0.01 0.01 0.01 0.01 0.01 0.01 0.01 0.01 0.00 0.00 0.01 0.00 0.00 0.00 0.00 0.00 0.00 0.00 0.00 0.01 0.02 0.02 0.03
0.00 0.00 0.00 0.00 0.00 0.00 0.00 0.00 0.00 0.00 0.00 0.00 0.00 0.00 0.00 0.01 0.01 0.00 0.00 0.00 0.00 0.00 0.00 0.00 0.01 0.01 0.02 0.02 0.02 0.03 0.03 0.03 0.02 0.01 0.00 0.00 0.01 0.00 0.00 0.00 0.00 0.00 0.00 0.00 0.00 0.00 0.01 0.02 0.02
0.00 0.00 0.00 0.00 0.00 0.00 0.00 0.00 0.01 0.02 0.02 0.02 0.02 0.01 0.01 0.01 0.02 0.02 0.02 0.02 0.01 0.00 0.00 0.00 0.01 0.01 0.02 0.02 0.03 0.04 0.07 0.06 0.03 0.02 0.00 0.01 0.02 0.01 0.01 0.01 0.00 0.00 0.00 0.00 0.00 0.00 0.00 0.01 0.01
0.00 0.00 0.00 0.00 0.00 0.00 0.00 0.01 0.02 0.03 0.03 0.03 0.02 0.02 0.02 0.03 0.04 0.05 0.05 0.05 0.04 0.03 0.02 0.01 0.01 0.01 0.01 0.01 0.02 0.06 0.08 0.08 0.05 0.05 0.03 0.02 0.02 0.01 0.01 0.01 0.00 0.00 0.00 0.00 0.00 0.00 0.00 0.00 0.00
0.00 0.00 0.00 0.00 0.00 0.00 0.01 0.01 0.02 0.02 0.02 0.02 0.03 0.04 0.05 0.06 0.07 0.07 0.08 0.10 0.11 0.11 0.09 0.04 0.03 0.02 0.02 0.02 0.02 0.05 0.08 0.10 0.08 0.05 0.04 0.04 0.03 0.01 0.00 0.00 0.00 0.01 0.00 0.00 0.00 0.00 0.00 0.00 0.00
0.00 0.00 0.01 0.01 0.01 0.01 0.02 0.01 0.01 0.01 0.03 0.04 0.05 0.07 0.09 0.08 0.08 0.08 0.09 0.10 0.13 0.15 0.16 0.12 0.09 0.07 0.05 0.05 0.04 0.05 0.06 0.07 0.07 0.06 0.05 0.06 0.05 0.02 0.01 0.00 0.00 0.01 0.01 0.00 0.00 0.00 0.00 0.00 0.00
0.00 0.01 0.01 0.01 0.01 0.01 0.01 0.01 0.01 0.01 0.03 0.04 0.06 0.09 0.11 0.12 0.11 0.12 0.14 0.15 0.14 0.16 0.19 0.18 0.15 0.15 0.14 0.11 0.10 0.07 0.08 0.08 0.09 0.09 0.07 0.06 0.05 0.03 0.02 0.00 0.00 0.00 0.00 0.00 0.00 0.00 0.00 0.00 0.00
0.01 0.01 0.01 0.01 0.01 0.01 0.01 0.01 0.01 0.01 0.03 0.04 0.06 0.09 0.09 0.09 0.10 0.12 0.16 0.17 0.18 0.21 0.23 0.24 0.22 0.21 0.20 0.17 0.15 0.13 0.15 0.17 0.15 0.11 0.09 0.08 0.06 0.04 0.03 0.01 0.00 0.00 0.00 0.00 0.00 0.00 0.00 0.00 0.00
0.01 0.01 0.00 0.00 0.01 0.01 0.01 0.01 0.01 0.01 0.02 0.04 0.05 0.05 0.06 0.07 0.08 0.09 0.11 0.13 0.15 0.17 0.19 0.21 0.22 0.23 0.24 0.23 0.22 0.19 0.21 0.26 0.25 0.22 0.16 0.10 0.08 0.06 0.04 0.03 0.02 0.01 0.01 0.00 0.00 0.00 0.00 0.00 0.00
0.00 0.00 0.01 0.00 0.00 0.00 0.01 0.01 0.00 0.01 0.01 0.02 0.02 0.03 0.04 0.05 0.05 0.05 0.06 0.08 0.09 0.10 0.11 0.12 0.14 0.18 0.21 0.23 0.24 0.26 0.26 0.31 0.28 0.28 0.24 0.16 0.12 0.10 0.08 0.06 0.06 0.04 0.02 0.01 0.01 0.00 0.00 0.00 0.00
0.00 0.00 0.00 0.00 0.00 0.00 0.01 0.01 0.00 0.00 0.00 0.00 0.00 0.01 0.01 0.01 0.02 0.02 0.03 0.03 0.04 0.04 0.05 0.06 0.07 0.10 0.14 0.18 0.18 0.23 0.24 0.27 0.28 0.27 0.23 0.19 0.18 0.16 0.14 0.11 0.10 0.09 0.06 0.03 0.02 0.01 0.01 0.00 0.00
0.00 0.00 0.00 0.00 0.00 0.00 0.00 0.00 0.00 0.00 0.00 0.00 0.00 0.00 0.00 0.00 0.01 0.01 0.01 0.01 0.01 0.02 0.02 0.03 0.03 0.04 0.06 0.09 0.13 0.19 0.24 0.26 0.25 0.23 0.22 0.22 0.20 0.22 0.21 0.18 0.17 0.16 0.10 0.06 0.03 0.02 0.01 0.01 0.01
0.00 0.00 0.00 0.00 0.00 0.00 0.00 0.00 0.00 0.00 0.00 0.00 0.00 0.00 0.00 0.00 0.00 0.00 0.00 0.00 0.00 0.00 0.01 0.01 0.01 0.02 0.03 0.04 0.06 0.09 0.17 0.26 0.26 0.23 0.23 0.23 0.22 0.22 0.21 0.19 0.20 0.16 0.12 0.11 0.08 0.05 0.03 0.02 0.01
0.00 0.00 0.00 0.00 0.00 0.00 0.00 0.00 0.00 0.00 0.00 0.00 0.00 0.00 0.00 0.00 0.00 0.00 0.00 0.00 0.00 0.00 0.00 0.01 0.01 0.01 0.01 0.02 0.03 0.04 0.07 0.13 0.17 0.18 0.18 0.20 0.24 0.24 0.22 0.21 0.18 0.15 0.15 0.16 0.12 0.09 0.08 0.04 0.02
0.00 0.00 0.00 0.00 0.00 0.00 0.00 0.00 0.00 0.00 0.00 0.00 0.00 0.00 0.00 0.00 0.00 0.00 0.00 0.00 0.00 0.00 0.00 0.01 0.01 0.01 0.01 0.01 0.01 0.02 0.03 0.05 0.07 0.09 0.11 0.14 0.17 0.22 0.28 0.26 0.24 0.20 0.19 0.17 0.15 0.12 0.11 0.09 0.05
0.00 0.00 0.00 0.00 0.00 0.00 0.00 0.01 0.01 0.00 0.00 0.00 0.00 0.00 0.00 0.00 0.00 0.01 0.00 0.00 0.01 0.01 0.01 0.01 0.01 0.00 0.00 0.00 0.01 0.01 0.02 0.03 0.05 0.07 0.10 0.13 0.16 0.16 0.21 0.24 0.25 0.22 0.20 0.18 0.17 0.12 0.09 0.10 0.08
0.00 0.00 0.00 0.00 0.00 0.00 0.00 0.01 0.00 0.00 0.00 0.00 0.00 0.00 0.00 0.00 0.00 0.01 0.01 0.01 0.01 0.02 0.02 0.01 0.02 0.02 0.02 0.01 0.01 0.02 0.02 0.03 0.03 0.05 0.06 0.07 0.10 0.13 0.16 0.20 0.23 0.22 0.21 0.19 0.20 0.16 0.11 0.09 0.10
0.00 0.00 0.00 0.00 0.00 0.00 0.00 0.00 0.00 0.00 0.00 0.00 0.00 0.01 0.00 0.00 0.01 0.01 0.01 0.02 0.04 0.02 0.03 0.02 0.04 0.05 0.05 0.04 0.04 0.03 0.03 0.02 0.02 0.03 0.04 0.05 0.06 0.08 0.11 0.16 0.22 0.22 0.20 0.21 0.21 0.21 0.17 0.14 0.13
0.00 0.00 0.00 0.00 0.00 0.00 0.00 0.00 0.00 0.00 0.00 0.00 0.00 0.01 0.01 0.01 0.01 0.01 0.02 0.03 0.03 0.04 0.04 0.04 0.04 0.06 0.06 0.05 0.05 0.04 0.05 0.04 0.03 0.03 0.03 0.03 0.04 0.05 0.07 0.10 0.15 0.19 0.20 0.23 0.23 0.24 0.23 0.22 0.21
0.00 0.00 0.00 0.00 0.00 0.00 0.00 0.00 0.00 0.01 0.00 0.00 0.00 0.01 0.01 0.01 0.01 0.02 0.02 0.03 0.05 0.08 0.09 0.08 0.08 0.09 0.07 0.07 0.06 0.07 0.07 0.06 0.05 0.03 0.03 0.04 0.04 0.04 0.05 0.07 0.10 0.15 0.16 0.16 0.17 0.20 0.20 0.22 0.21
0.00 0.00 0.00 0.00 0.00 0.00 0.00 0.00 0.00 0.00 0.00 0.00 0.01 0.01 0.01 0.02 0.02 0.03 0.04 0.06 0.11 0.13 0.16 0.17 0.14 0.15 0.12 0.10 0.08 0.11 0.10 0.07 0.07 0.07 0.05 0.04 0.04 0.04 0.04 0.04 0.04 0.07 0.09 0.10 0.11 0.13 0.14 0.17 0.19
0.00 0.00 0.00 0.00 0.00 0.00 0.00 0.00 0.00 0.01 0.00 0.00 0.01 0.01 0.01 0.02 0.02 0.04 0.07 0.12 0.15 0.16 0.18 0.18 0.14 0.14 0.17 0.14 0.08 0.08 0.10 0.11 0.10 0.10 0.07 0.05 0.05 0.05 0.05 0.05 0.05 0.06 0.06 0.07 0.09 0.11 0.12 0.12 0.15
0.00 0.00 0.00 0.00 0.00 0.00 0.00 0.00 0.00 0.00 0.01 0.01 0.01 0.01 0.02 0.02 0.04 0.05 0.06 0.10 0.12 0.15 0.16 0.19 0.19 0.16 0.15 0.13 0.10 0.09 0.08 0.08 0.09 0.08 0.07 0.06 0.05 0.06 0.06 0.05 0.05 0.07 0.09 0.08 0.08 0.09 0.11 0.12 0.13
0.00 0.00 0.00 0.00 0.00 0.00 0.00 0.00 0.00 0.00 0.00 0.01 0.01 0.02 0.03 0.02 0.02 0.03 0.03 0.05 0.07 0.08 0.07 0.08 0.14 0.15 0.12 0.08 0.08 0.07 0.06 0.05 0.06 0.07 0.05 0.04 0.04 0.04 0.04 0.04 0.04 0.05 0.07 0.08 0.09 0.09 0.11 0.13 0.12
MSLP
1009.54 1010.31 1011.24 1012.22 1013.13 1013.86 1014.35 1014.60 1014.62 1014.50 1014.32 1014.15 1014.03 1013.99 1013.99 1014.01 1014.01 1013.97 1013.89 1013.80 1013.75 1013.77 1013.90 1014.13 1014.45 1014.80 1015.14 1015.42 1015.62 1015.73 1015.77 1015.78 1015.81 1015.86 1015.97 1016.11 1016.27 1016.43 1016.57 1016.66 1016.72 1016.76 1016.79 1016.82 1016.86 1016.91 1016.93 1016.93 1016.89
1009.95 1010.87 1011.92 1012.94 1013.81 1014.44 1014.77 1014.81 1014.62 1014.31 1013.97 1013.69 1013.53 1013.48 1013.52 1013.61 1013.70 1013.75 1013.76 1013.74 1013.76 1013.83 1014.00 1014.27 1014.63 1015.02 1015.40 1015.71 1015.93 1016.06 1016.12 1016.13 1016.14 1016.17 1016.25 1016.35 1016.48 1016.60 1016.70 1016.77 1016.81 1016.84 1016.87 1016.92 1016.98 1017.05 1017.11 1017.13 1017.11
1010.44 1011.47 1012.56 1013.57 1014.35 1014.84 1014.99 1014.85 1014.48 1014.02 1013.57 1013.24 1013.06 1013.05 1013.16 1013.33 1013.49 1013.62 1013.70 1013.74 1013.79 1013.91 1014.11 1014.41 1014.79 1015.21 1015.62 1015.97 1016.23 1016.38 1016.46 1016.48 1016.49 1016.51 1016.56 1016.63 1016.72 1016.81 1016.87 1016.91 1016.93 1016.95 1016.98 1017.04 1017.13 1017.22 1017.30 1017.35 1017.35
1010.96 1012.04 1013.13 1014.07 1014.74 1015.07 1015.06 1014.76 1014.27 1013.71 1013.22 1012.88 1012.74 1012.78 1012.95 1013.19 1013.41 1013.59 1013.70 1013.76 1013.83 1013.95 1014.16 1014.47 1014.87 1015.32 1015.76 1016.14 1016.43 1016.62 1016.72 1016.76 1016.78 1016.80 1016.85 1016.91 1016.98 1017.04 1017.08 1017.10 1017.10 1017.11 1017.14 1017.20 1017.30 1017.41 1017.52 1017.59 1017.60
1011.49 1012.57 1013.61 1014.45 1014.99 1015.19 1015.05 1014.64 1014.08 1013.50 1013.02 1012.73 1012.64 1012.73 1012.96 1013.23 1013.48 1013.66 1013.76 1013.80 1013.85 1013.94 1014.13 1014.43 1014.84 1015.29 1015.75 1016.15 1016.48 1016.70 1016.83 1016.90 1016.95 1016.99 1017.04 1017.11 1017.18 1017.25 1017.28 1017.30 1017.30 1017.30 1017.33 1017.39 1017.49 1017.61 1017.72 1017.80 1017.82
1012.01 1013.06 1014.01 1014.74 1015.17 1015.26 1015.04 1014.59 1014.04 1013.49 1013.08 1012.85 1012.83 1012.98 1013.23 1013.50 1013.72 1013.85 1013.90 1013.88 1013.86 1013.90 1014.05 1014.31 1014.69 1015.13 1015.59 1016.00 1016.34 1016.59 1016.76 1016.86 1016.94 1017.01 1017.10 1017.19 1017.29 1017.37 1017.43 1017.46 1017.47 1017.48 1017.51 1017.57 1017.66 1017.78 1017.88 1017.95 1017.97
1012.53 1013.51 1014.36 1014.99 1015.33 1015.37 1015.14 1014.73 1014.23 1013.78 1013.46 1013.32 1013.36 1013.53 1013.77 1014.00 1014.16 1014.21 1014.15 1014.05 1013.94 1013.90 1013.96 1014.16 1014.49 1014.89 1015.31 1015.71 1016.05 1016.31 1016.49 1016.63 1016.74 1016.85 1016.98 1017.11 1017.25 1017.38 1017.47 1017.53 1017.57 1017.60 1017.64 1017.69 1017.77 1017.86 1017.94 1017.99 1017.99
1013.04 1013.93 1014.70 1015.26 1015.56 1015.60 1015.42 1015.10 1014.73 1014.41 1014.20 1014.14 1014.22 1014.39 1014.59 1014.75 1014.81 1014.74 1014.58 1014.36 1014.15 1014.00 1013.98 1014.09 1014.33 1014.65 1015.02 1015.37 1015.68 1015.92 1016.11 1016.26 1016.39 1016.54 1016.70 1016.88 1017.06 1017.23 1017.37 1017.48 1017.55 1017.60 1017.65 1017.70 1017.76 1017.82 1017.88 1017.90 1017.87
1013.52 1014.34 1015.05 1015.57 1015.89 1015.99 1015.92 1015.74 1015.52 1015.34 1015.25 1015.26 1015.36 1015.50 1015.64 1015.70 1015.65 1015.47 1015.20 1014.87 1014.55 1014.31 1014.17 1014.17 1014.30 1014.53 1014.79 1015.07 1015.31 1015.52 1015.68 1015.82 1015.97 1016.12 1016.31 1016.52 1016.74 1016.95 1017.13 1017.27 1017.38 1017.46 1017.52 1017.57 1017.62 1017.66 1017.68 1017.67 1017.63
1013.96 1014.73 1015.40 1015.93 1016.31 1016.53 1016.61 1016.61 1016.56 1016.53 1016.53 1016.59 1016.69 1016.78 1016.83 1016.79 1016.64 1016.36 1016.00 1015.59 1015.18 1014.84 1014.61 1014.49 1014.49 1014.59 1014.73 1014.90 1015.05 1015.19 1015.30 1015.42 1015.54 1015.70 1015.88 1016.10 1016.33 1016.56 1016.76 1016.93 1017.07 1017.17 1017.25 1017.31 1017.35 1017.38 1017.38 1017.35 1017.29
1014.35 1015.08 1015.75 1016.34 1016.82 1017.18 1017.45 1017.63 1017.76 1017.85 1017.94 1018.02 1018.08 1018.10 1018.06 1017.92 1017.68 1017.34 1016.92 1016.46 1016.00 1015.59 1015.26 1015.04 1014.91 1014.86 1014.87 1014.91 1014.96 1015.01 1015.05 1015.12 1015.20 1015.33 1015.49 1015.68 1015.90 1016.12 1016.33 1016.51 1016.66 1016.79 1016.88 1016.95 1017.00 1017.03 1017.02 1016.98 1016.92
1014.69 1015.41 1016.11 1016.76 1017.37 1017.90 1018.35 1018.72 1019.00 1019.19 1019.33 1019.39 1019.40 1019.34 1019.20 1018.98 1018.68 1018.30 1017.86 1017.39 1016.92 1016.47 1016.08 1015.76 1015.51 1015.33 1015.20 1015.11 1015.04 1014.99 1014.97 1014.96 1015.00 1015.07 1015.18 1015.33 1015.50 1015.69 1015.88 1016.06 1016.22 1016.36 1016.47 1016.57 1016.63 1016.67 1016.67 1016.64 1016.58
1015.01 1015.73 1016.46 1017.20 1017.93 1018.62 1019.24 1019.76 1020.16 1020.43 1020.57 1020.59 1020.52 1020.37 1020.14 1019.86 1019.52 1019.13 1018.71 1018.26 1017.80 1017.35 1016.93 1016.53 1016.19 1015.90 1015.64 1015.43 1015.26 1015.13 1015.02 1014.96 1014.93 1014.94 1015.00 1015.08 1015.20 1015.34 1015.49 1015.65 1015.81 1015.96 1016.09 1016.21 1016.30 1016.36 1016.39 1016.37 1016.33
1015.38 1016.08 1016.85 1017.65 1018.49 1019.30 1020.05 1020.69 1021.16 1021.46 1021.57 1021.53 1021.37 1021.11 1020.80 1020.46 1020.10 1019.73 1019.34 1018.95 1018.53 1018.10 1017.67 1017.24 1016.83 1016.44 1016.10 1015.80 1015.55 1015.34 1015.18 1015.06 1014.98 1014.93 1014.92 1014.95 1015.00 1015.08 1015.19 1015.33 1015.48 1015.64 1015.80 1015.95 1016.07 1016.16 1016.21 1016.22 1016.20
1015.84 1016.52 1017.28 1018.13 1019.03 1019.93 1020.76 1021.45 1021.96 1022.24 1022.30 1022.18 1021.91 1021.55 1021.16 1020.76 1020.39 1020.04 1019.70 1019.37 1019.01 1018.62 1018.20 1017.75 1017.30 1016.86 1016.46 1016.10 1015.80 1015.55 1015.35 1015.19 1015.07 1014.98 1014.92 1014.89 1014.89 1014.92 1015.00 1015.11 1015.26 1015.43 1015.62 1015.80 1015.95 1016.08 1016.15 1016.18 1016.18
1016.45 1017.08 1017.81 1018.65 1019.56 1020.48 1021.34 1022.05 1022.55 1022.79 1022.78 1022.56 1022.19 1021.73 1021.26 1020.81 1020.42 1020.09 1019.79 1019.50 1019.20 1018.85 1018.45 1018.01 1017.55 1017.09 1016.65 1016.26 1015.94 1015.67 1015.45 1015.28 1015.14 1015.02 1014.93 1014.85 1014.81 1014.82 1014.87 1014.97 1015.13 1015.32 1015.53 1015.74 1015.93 1016.07 1016.17 1016.22 1016.23
1017.22 1017.76 1018.42 1019.21 1020.08 1020.98 1021.82 1022.50 1022.95 1023.13 1023.05 1022.74 1022.27 1021.73 1021.18 1020.69 1020.27 1019.94 1019.67 1019.41 1019.14 1018.82 1018.45 1018.02 1017.56 1017.09 1016.65 1016.26 1015.92 1015.66 1015.44 1015.26 1015.12 1014.99 1014.87 1014.78 1014.72 1014.71 1014.76 1014.86 1015.03 1015.24 1015.48 1015.72 1015.93 1016.10 1016.22 1016.28 1016.29
1018.11 1018.55 1019.11 1019.80 1020.60 1021.43 1022.20 1022.82 1023.21 1023.33 1023.17 1022.79 1022.25 1021.64 1021.03 1020.49 1020.05 1019.70 1019.43 1019.18 1018.92 1018.61 1018.25 1017.83 1017.37 1016.91 1016.47 1016.08 1015.76 1015.50 1015.29 1015.12 1014.97 1014.84 1014.72 1014.62 1014.56 1014.54 1014.60 1014.72 1014.91 1015.14 1015.41 1015.66 1015.90 1016.08 1016.21 1016.28 1016.31
1019.05 1019.37 1019.82 1020.40 1021.09 1021.82 1022.51 1023.05 1023.37 1023.43 1023.22 1022.79 1022.20 1021.55 1020.91 1020.33 1019.85 1019.48 1019.18 1018.91 1018.64 1018.32 1017.94 1017.52 1017.06 1016.60 1016.17 1015.79 1015.47 1015.22 1015.01 1014.84 1014.70 1014.56 1014.43 1014.34 1014.28 1014.27 1014.34 1014.48 1014.69 1014.95 1015.23 1015.50 1015.74 1015.94 1016.08 1016.16 1016.21
1019.93 1020.15 1020.48 1020.95 1021.52 1022.15 1022.74 1023.20 1023.46 1023.47 1023.23 1022.78 1022.19 1021.52 1020.86 1020.27 1019.76 1019.35 1019.01 1018.70 1018.38 1018.03 1017.63 1017.18 1016.71 1016.25 1015.81 1015.43 1015.11 1014.86 1014.65 1014.47 1014.31 1014.17 1014.04 1013.93 1013.88 1013.88 1013.96 1014.11 1014.34 1014.61 1014.90 1015.18 1015.43 1015.63 1015.78 1015.89 1015.96
1020.67 1020.80 1021.03 1021.40 1021.87 1022.39 1022.89 1023.28 1023.49 1023.48 1023.24 1022.80 1022.22 1021.57 1020.92 1020.32 1019.79 1019.35 1018.96 1018.59 1018.22 1017.82 1017.37 1016.89 1016.40 1015.91 1015.47 1015.08 1014.75 1014.48 1014.25 1014.05 1013.88 1013.71 1013.56 1013.45 1013.38 1013.38 1013.46 1013.61 1013.83 1014.10 1014.39 1014.67 1014.93 1015.14 1015.31 1015.44 1015.56
1021.20 1021.27 1021.44 1021.73 1022.12 1022.56 1022.98 1023.31 1023.48 1023.46 1023.23 1022.82 1022.28 1021.68 1021.05 1020.46 1019.93 1019.45 1019.01 1018.59 1018.16 1017.70 1017.20 1016.68 1016.16 1015.65 1015.18 1014.77 1014.43 1014.13 1013.88 1013.66 1013.45 1013.26 1013.08 1012.93 1012.84 1012.82 1012.88 1013.02 1013.23 1013.48 1013.75 1014.02 1014.28 1014.50 1014.69 1014.86 1015.03
1021.52 1021.57 1021.71 1021.95 1022.28 1022.65 1023.01 1023.29 1023.44 1023.41 1023.20 1022.84 1022.35 1021.79 1021.21 1020.64 1020.11 1019.61 1019.13 1018.66 1018.17 1017.66 1017.11 1016.55 1015.99 1015.46 1014.98 1014.55 1014.18 1013.87 1013.59 1013.34 1013.10 1012.87 1012.66 1012.48 1012.35 1012.29 1012.31 1012.41 1012.59 1012.81 1013.06 1013.31 1013.56 1013.79 1014.00 1014.22 1014.46
1021.66 1021.73 1021.87 1022.09 1022.39 1022.71 1023.02 1023.26 1023.38 1023.34 1023.16 1022.83 1022.39 1021.88 1021.34 1020.80 1020.27 1019.76 1019.26 1018.75 1018.22 1017.66 1017.08 1016.49 1015.91 1015.36 1014.86 1014.42 1014.04 1013.71 1013.41 1013.13 1012.86 1012.60 1012.36 1012.14 1011.97 1011.86 1011.83 1011.89 1012.01 1012.19 1012.41 1012.64 1012.87 1013.11 1013.34 1013.60 1013.89
1021.72 1021.83 1021.99 1022.22 1022.49 1022.79 1023.05 1023.24 1023.33 1023.28 1023.09 1022.79 1022.38 1021.91 1021.41 1020.89 1020.38 1019.87 1019.35 1018.82 1018.27 1017.69 1017.09 1016.48 1015.89 1015.34 1014.84 1014.39 1014.01 1013.67 1013.36 1013.07 1012.79 1012.50 1012.23 1011.97 1011.76 1011.61 1011.53 1011.52 1011.59 1011.72 1011.90 1012.10 1012.32 1012.55 1012.81 1013.09 1013.42
1021.78 1021.94 1022.14 1022.38 1022.64 1022.90 1023.12 1023.27 1023.31 1023.23 1023.03 1022.73 1022.33 1021.89 1021.41 1020.91 1020.41 1019.91 1019.39 1018.86 1018.30 1017.72 1017.12 1016.52 1015.94 1015.40 1014.91 1014.47 1014.09 1013.76 1013.45 1013.16 1012.87 1012.58 1012.29 1012.01 1011.77 1011.57 1011.44 1011.38 1011.40 1011.48 1011.61 1011.78 1011.98 1012.21 1012.46 1012.75 1013.10
1021.91 1022.11 1022.35 1022.60 1022.86 1023.09 1023.26 1023.35 1023.34 1023.22 1022.99 1022.66 1022.26 1021.82 1021.34 1020.86 1020.38 1019.88 1019.38 1018.87 1018.33 1017.77 1017.20 1016.62 1016.07 1015.55 1015.08 1014.66 1014.29 1013.97 1013.68 1013.39 1013.11 1012.82 1012.53 1012.24 1011.98 1011.75 1011.58 1011.48 1011.45 1011.49 1011.58 1011.72 1011.89 1012.10 1012.34 1012.61 1012.95
1022.12 1022.36 1022.63 1022.89 1023.13 1023.32 1023.45 1023.48 1023.41 1023.24 1022.96 1022.61 1022.19 1021.73 1021.26 1020.78 1020.30 1019.83 1019.36 1018.87 1018.37 1017.85 1017.33 1016.80 1016.28 1015.80 1015.35 1014.96 1014.61 1014.30 1014.02 1013.75 1013.48 1013.20 1012.92 1012.63 1012.36 1012.12 1011.93 1011.80 1011.73 1011.73 1011.79 1011.90 1012.04 1012.22 1012.43 1012.67 1012.96
1022.38 1022.66 1022.93 1023.19 1023.40 1023.56 1023.64 1023.62 1023.50 1023.28 1022.96 1022.57 1022.13 1021.65 1021.17 1020.69 1020.22 1019.77 1019.33 1018.89 1018.44 1017.99 1017.52 1017.05 1016.59 1016.14 1015.73 1015.36 1015.02 1014.72 1014.45 1014.19 1013.93 1013.67 1013.40 1013.13 1012.86 1012.63 1012.42 1012.28 1012.19 1012.16 1012.19 1012.27 1012.38 1012.52 1012.69 1012.88 1013.11
1022.65 1022.93 1023.19 1023.43 1023.61 1023.73 1023.77 1023.72 1023.56 1023.30 1022.95 1022.54 1022.07 1021.58 1021.09 1020.61 1020.15 1019.73 1019.32 1018.93 1018.55 1018.16 1017.77 1017.36 1016.96 1016.57 1016.19 1015.83 1015.51 1015.21 1014.94 1014.68 1014.43 1014.18 1013.92 1013.66 1013.41 1013.18 1012.98 1012.83 1012.72 1012.68 1012.68 1012.73 1012.81 1012.91 1013.04 1013.17 1013.33
Thickness
5841 5842 5842 5832 5821 5808 5794 5801 5811 5810 5815 5821 5822 5817 5812 5809 5801 5793 5807 5818 5816 5810 5803 5796 5793 5791 5788 5786 5784 5782 5780 5779 5776 5775 5773 5771 5769 5767 5766 5765 5763 5763 5763 5762 5763 5762 5762 5762 5762
5847 5843 5836 5829 5812 5790 5789 5806 5809 5812 5818 5823 5821 5818 5812 5808 5809 5806 5809 5813 5812 5808 5803 5798 5792 5790 5788 5786 5784 5782 5780 5778 5776 5774 5772 5770 5769 5767 5765 5764 5763 5762 5762 5761 5761 5761 5761 5761 5761
5847 5843 5831 5822 5804 5793 5792 5807 5812 5817 5822 5821 5816 5816 5811 5804 5807 5808 5812 5812 5810 5806 5802 5796 5791 5788 5786 5785 5783 5781 5779 5777 5775 5773 5771 5770 5768 5767 5765 5764 5763 5762 5761 5760 5760 5760 5759 5759 5759
5845 5836 5830 5814 5796 5802 5806 5813 5818 5816 5818 5819 5816 5809 5810 5810 5812 5813 5812 5811 5808 5803 5800 5794 5789 5787 5785 5783 5782 5780 5778 5776 5774 5773 5771 5770 5768 5767 5766 5764 5763 5762 5761 5760 5759 5759 5759 5758 5758
5843 5831 5814 5799 5798 5808 5817 5820 5820 5814 5813 5814 5814 5805 5801 5809 5814 5813 5810 5808 5805 5802 5798 5793 5787 5785 5783 5782 5780 5779 5777 5775 5774 5772 5770 5769 5768 5767 5766 5764 5763 5762 5761 5759 5759 5758 5758 5757 5757
5830 5826 5802 5790 5795 5807 5816 5822 5820 5814 5811 5812 5810 5803 5798 5807 5808 5808 5807 5805 5805 5801 5797 5793 5785 5783 5782 5780 5779 5777 5776 5774 5773 5771 5770 5768 5767 5766 5765 5764 5763 5762 5760 5759 5758 5758 5757 5757 5756
5824 5814 5798 5795 5793 5798 5808 5820 5816 5811 5805 5805 5810 5801 5798 5802 5804 5805 5804 5803 5801 5799 5796 5793 5789 5784 5780 5779 5778 5776 5775 5773 5772 5770 5769 5768 5767 5766 5764 5763 5762 5761 5760 5759 5758 5758 5757 5756 5756
5831 5817 5798 5796 5792 5790 5805 5813 5810 5806 5799 5806 5807 5797 5792 5797 5801 5801 5799 5797 5796 5796 5794 5792 5790 5788 5785 5782 5778 5776 5774 5773 5771 5770 5768 5767 5766 5765 5764 5764 5762 5761 5760 5759 5759 5758 5757 5756 5756
5831 5809 5791 5791 5791 5788 5800 5801 5801 5804 5797 5794 5794 5792 5795 5797 5797 5793 5789 5788 5788 5789 5791 5791 5789 5787 5785 5783 5780 5776 5774 5772 5770 5769 5768 5767 5768 5769 5766 5765 5762 5761 5760 5759 5759 5758 5757 5757 5756
5821 5797 5789 5795 5798 5788 5788 5788 5789 5788 5780 5778 5778 5782 5787 5788 5786 5783 5780 5780 5781 5782 5785 5787 5786 5785 5783 5781 5780 5777 5776 5774 5772 5773 5771 5770 5771 5770 5769 5764 5762 5760 5760 5759 5759 5758 5758 5759 5762
5811 5793 5793 5794 5797 5793 5784 5774 5775 5774 5758 5756 5758 5764 5770 5772 5772 5771 5771 5772 5774 5777 5779 5781 5782 5782 5781 5779 5777 5776 5775 5773 5773 5773 5772 5770 5770 5769 5768 5767 5763 5762 5761 5763 5760 5760 5764 5765 5765
5799 5789 5792 5788 5789 5785 5778 5770 5756 5748 5741 5749 5754 5757 5759 5758 5757 5757 5759 5761 5764 5766 5768 5772 5774 5776 5776 5776 5775 5773 5773 5772 5771 5771 5771 5769 5768 5769 5770 5768 5768 5766 5764 5764 5765 5765 5766 5766 5767
5793 5780 5779 5777 5774 5770 5764 5755 5745 5734 5738 5742 5745 5746 5745 5746 5747 5748 5750 5752 5753 5755 5757 5761 5764 5766 5768 5769 5769 5770 5770 5770 5770 5768 5767 5768 5767 5767 5768 5768 5765 5765 5765 5764 5763 5765 5767 5767 5767
5786 5779 5774 5771 5767 5760 5751 5743 5735 5724 5731 5732 5733 5733 5733 5734 5735 5738 5740 5741 5743 5744 5747 5750 5754 5756 5758 5760 5762 5764 5765 5765 5765 5764 5764 5765 5764 5764 5765 5765 5765 5765 5764 5764 5763 5764 5764 5765 5766
5785 5771 5763 5759 5760 5755 5751 5725 5715 5717 5722 5720 5721 5722 5723 5725 5727 5727 5729 5732 5734 5736 5738 5741 5745 5747 5749 5752 5754 5757 5758 5759 5759 5758 5760 5761 5761 5761 5761 5762 5763 5763 5762 5762 5761 5763 5762 5762 5763
5778 5766 5749 5742 5747 5745 5739 5702 5703 5710 5711 5709 5710 5712 5713 5715 5718 5720 5721 5724 5726 5728 5730 5732 5736 5738 5741 5743 5746 5749 5751 5752 5753 5753 5754 5755 5756 5757 5757 5758 5759 5759 5760 5760 5759 5759 5758 5760 5761
5763 5752 5740 5731 5734 5733 5723 5692 5694 5701 5701 5699 5700 5702 5704 5706 5708 5710 5712 5714 5716 5719 5722 5724 5727 5729 5733 5736 5739 5742 5744 5747 5748 5748 5748 5749 5751 5752 5753 5754 5755 5756 5755 5756 5756 5756 5757 5757 5757
5743 5742 5731 5720 5717 5717 5702 5686 5687 5691 5691 5690 5691 5693 5694 5695 5697 5700 5702 5704 5707 5710 5712 5714 5717 5720 5724 5727 5732 5735 5738 5741 5743 5743 5744 5745 5746 5747 5748 5748 5750 5750 5750 5751 5752 5752 5751 5753 5753
5740 5733 5722 5710 5708 5701 5690 5681 5679 5682 5682 5682 5683 5684 5684 5685 5688 5691 5692 5694 5697 5699 5701 5704 5706 5710 5713 5716 5719 5724 5728 5733 5736 5738 5738 5739 5741 5743 5743 5745 5746 5746 5745 5747 5748 5747 5746 5746 5750
5731 5722 5711 5700 5700 5694 5682 5675 5675 5674 5671 5670 5671 5672 5673 5673 5676 5679 5681 5682 5684 5686 5689 5692 5696 5699 5702 5705 5708 5713 5718 5724 5729 5732 5734 5735 5737 5738 5740 5741 5741 5742 5742 5742 5743 5742 5742 5743 5744
5718 5712 5704 5694 5688 5687 5677 5667 5667 5667 5667 5664 5663 5663 5663 5662 5664 5666 5667 5669 5672 5673 5676 5680 5683 5687 5691 5694 5698 5703 5709 5714 5719 5723 5727 5730 5733 5735 5736 5737 5738 5738 5738 5738 5738 5738 5736 5735 5739
5706 5701 5696 5689 5685 5677 5671 5666 5657 5657 5656 5654 5653 5653 5653 5653 5654 5655 5656 5658 5660 5662 5665 5668 5672 5676 5679 5682 5686 5690 5695 5700 5708 5714 5720 5725 5728 5731 5733 5734 5734 5735 5735 5736 5736 5736 5735 5732 5731
5700 5695 5692 5688 5683 5675 5669 5665 5654 5653 5644 5643 5644 5645 5646 5646 5646 5645 5646 5647 5649 5652 5654 5657 5660 5664 5667 5670 5674 5679 5685 5691 5698 5705 5711 5717 5722 5726 5728 5730 5731 5731 5732 5732 5732 5732 5731 5730 5729
5696 5692 5687 5685 5682 5666 5658 5656 5644 5640 5635 5636 5638 5639 5640 5640 5640 5640 5640 5640 5641 5643 5645 5647 5650 5653 5656 5660 5664 5669 5674 5681 5688 5695 5701 5707 5713 5718 5722 5724 5725 5726 5727 5727 5727 5726 5726 5725 5725
5696 5689 5681 5675 5670 5659 5653 5647 5636 5636 5635 5633 5633 5634 5635 5635 5635 5634 5633 5634 5634 5635 5637 5640 5643 5645 5648 5652 5655 5660 5666 5672 5679 5686 5693 5698 5703 5707 5712 5717 5719 5721 5722 5722 5722 5721 5720 5720 5720
5685 5685 5677 5672 5669 5656 5648 5642 5637 5638 5638 5636 5634 5633 5632 5631 5630 5629 5629 5628 5628 5630 5632 5634 5637 5639 5642 5645 5648 5653 5658 5664 5671 5679 5685 5691 5696 5700 5705 5709 5712 5714 5715 5716 5716 5716 5716 5715 5714
5684 5679 5675 5671 5663 5656 5648 5642 5640 5640 5637 5634 5632 5631 5630 5629 5628 5627 5627 5626 5626 5627 5628 5630 5632 5634 5636 5639 5643 5647 5652 5657 5663 5671 5678 5682 5688 5693 5697 5701 5704 5705 5706 5708 5709 5709 5710 5709 5709
5681 5674 5674 5668 5658 5653 5644 5639 5635 5634 5631 5632 5631 5630 5629 5628 5628 5628 5626 5625 5625 5626 5628 5629 5631 5631 5633 5636 5638 5642 5646 5651 5656 5662 5668 5673 5678 5683 5688 5692 5694 5696 5698 5699 5700 5701 5702 5702 5701
5676 5671 5667 5664 5659 5652 5641 5637 5640 5635 5633 5631 5631 5632 5631 5630 5630 5629 5628 5628 5627 5628 5629 5629 5630 5631 5632 5634 5636 5639 5643 5647 5652 5656 5660 5665 5670 5674 5677 5681 5684 5686 5687 5689 5691 5692 5693 5693 5693
5674 5668 5666 5663 5655 5651 5647 5640 5647 5641 5639 5637 5635 5636 5635 5634 5634 5633 5632 5631 5631 5631 5631 5630 5630 5630 5631 5633 5636 5639 5641 5644 5647 5650 5653 5658 5662 5665 5669 5671 5673 5675 5677 5678 5680 5682 5683 5684 5683